SITRO-AIS 52

Last updated on Thu Nov 21 2024 00:03:40 GMT+0000 (Coordinated Universal Time)

1 59063U 24039N 24325.60767013 .00067027 00000+0 14387-2 0 9993 2 59063 97.4082 288.1636 0014319 37.4219 322.8023 15.44367702 40590
UTC large
Height (km)
Speed (km/s)
/
Latitude / Longitude
Inclination (degrees)
Orbital Period (minutes)
Azimuth
Elevation
Range (km)
Doppler Factor

Next 0 passes for location: London (51.5072 / 0.1276)

Sorry there are no passes over London.